2023/08/20 00:00:00,27.8,21.5
2023/08/20 00:10:00,27.7,21.6
2023/08/20 00:20:00,27.6,21.4
2023/08/20 00:30:00,27.6,21.3
2023/08/20 00:40:00,27.6,21.5
2023/08/20 00:50:00,27.6,21.5
2023/08/20 01:00:00,27.7,21.2
2023/08/20 01:10:00,27.9,21.2
2023/08/20 01:20:00,28.2,21.2
2023/08/20 01:30:00,28.5,21.2
2023/08/20 01:40:00,28.5,21.3
2023/08/20 01:50:00,28.8,21.3
2023/08/20 02:00:00,29.1,21.4
2023/08/20 02:10:00,29.6,21.1
2023/08/20 02:20:00,30.2,21.1
2023/08/20 02:30:00,30.7,21.0
2023/08/20 02:40:00,30.3,21.1
2023/08/20 02:50:00,29.5,21.0
2023/08/20 03:00:00,29.1,20.9
2023/08/20 03:10:00,28.7,20.9
2023/08/20 03:20:00,29.1,20.9
2023/08/20 03:30:00,28.8,21.0
2023/08/20 03:40:00,28.7,20.8
2023/08/20 03:50:00,29.4,20.8
2023/08/20 04:00:00,29.2,20.9
2023/08/20 04:10:00,29.6,21.0
2023/08/20 04:20:00,45.4,20.9
2023/08/20 04:30:00,57.6,20.7
2023/08/20 04:40:00,57.6,20.9
2023/08/20 04:50:00,57.3,20.6
2023/08/20 05:00:00,56.9,20.6
2023/08/20 05:10:00,56.6,20.5
2023/08/20 05:20:00,56.2,20.6
2023/08/20 05:30:00,55.7,20.7
2023/08/20 05:40:00,55.5,20.5
2023/08/20 05:50:00,55.1,20.5
2023/08/20 06:00:00,54.8,20.5
2023/08/20 06:10:00,54.6,20.6
2023/08/20 06:20:00,54.3,20.8
2023/08/20 06:30:00,53.9,20.9
2023/08/20 06:40:00,53.7,21.1
2023/08/20 06:50:00,53.4,21.4
2023/08/20 07:00:00,53.1,21.5
2023/08/20 07:10:00,52.8,21.9
2023/08/20 07:20:00,52.7,21.9
2023/08/20 07:30:00,52.5,22.3
2023/08/20 07:40:00,52.5,22.4
2023/08/20 07:50:00,52.4,22.6
2023/08/20 08:00:00,52.4,23.0
2023/08/20 08:10:00,52.3,23.3
2023/08/20 08:20:00,52.3,23.7
2023/08/20 08:30:00,52.1,24.0
2023/08/20 08:40:00,52.1,24.7
2023/08/20 08:50:00,51.9,25.1
2023/08/20 09:00:00,51.8,25.5
2023/08/20 09:10:00,51.9,26.5
2023/08/20 09:20:00,51.9,26.3
2023/08/20 09:30:00,52.0,26.9
2023/08/20 09:40:00,51.8,27.6
2023/08/20 09:50:00,51.6,27.9
2023/08/20 10:00:00,51.6,28.2
2023/08/20 10:10:00,51.3,28.8
2023/08/20 10:20:00,51.5,28.6
2023/08/20 10:30:00,51.8,28.6
2023/08/20 10:40:00,52.0,27.8
2023/08/20 10:50:00,52.4,27.9
2023/08/20 11:00:00,51.8,29.3
2023/08/20 11:10:00,50.7,29.3
2023/08/20 11:20:00,49.9,30.2
2023/08/20 11:30:00,48.9,30.8
2023/08/20 11:40:00,---,30.4
2023/08/20 11:50:00, 0.0,30.7
2023/08/20 12:00:00, 0.0,31.0
2023/08/20 12:10:00,---,30.8
2023/08/20 12:20:00,---,30.9
2023/08/20 12:30:00,---,30.8
2023/08/20 12:40:00,---,30.6
2023/08/20 12:50:00,---,31.6
2023/08/20 13:00:00,---,30.6
2023/08/20 13:10:00,---,30.6
2023/08/20 13:20:00, 0.9,31.2
2023/08/20 13:30:00,10.5,31.4
2023/08/20 13:40:00,---,31.2
2023/08/20 13:50:00,---,31.9
2023/08/20 14:00:00, 4.0,31.7
2023/08/20 14:10:00, 4.3,31.8
2023/08/20 14:20:00, 5.7,31.2
2023/08/20 14:30:00, 5.5,31.3
2023/08/20 14:40:00, 1.6,32.1
2023/08/20 14:50:00, 0.7,31.4
2023/08/20 15:00:00, 1.0,30.9
2023/08/20 15:10:00, 9.4,31.6
2023/08/20 15:20:00, 6.7,30.8
2023/08/20 15:30:00,19.6,30.8
2023/08/20 15:40:00, 4.4,30.9
2023/08/20 15:50:00, 8.0,30.6
2023/08/20 16:00:00,---,30.0
2023/08/20 16:10:00,---,29.8
2023/08/20 16:20:00,---,30.4
2023/08/20 16:30:00,50.4,29.3
2023/08/20 16:40:00,51.1,29.6
2023/08/20 16:50:00,51.9,28.9
2023/08/20 17:00:00,52.6,28.6
2023/08/20 17:10:00,52.7,28.3
2023/08/20 17:20:00,52.8,28.2
2023/08/20 17:30:00,52.7,27.9
2023/08/20 17:40:00,52.8,27.7
2023/08/20 17:50:00,52.9,27.5
2023/08/20 18:00:00,52.9,27.2
2023/08/20 18:10:00,53.5,26.6
2023/08/20 18:20:00,53.6,25.9
2023/08/20 18:30:00,53.8,26.5
2023/08/20 18:40:00,54.0,26.2
2023/08/20 18:50:00,54.2,26.5
2023/08/20 19:00:00,54.4,25.8
2023/08/20 19:10:00,54.7,25.5
2023/08/20 19:20:00,54.8,25.4
2023/08/20 19:30:00,55.1,25.3
2023/08/20 19:40:00,55.4,25.2
2023/08/20 19:50:00,55.7,25.1
2023/08/20 20:00:00,56.0,25.2
2023/08/20 20:10:00,56.3,24.8
2023/08/20 20:20:00,56.5,24.9
2023/08/20 20:30:00,56.8,24.8
2023/08/20 20:40:00,57.2,24.3
2023/08/20 20:50:00,57.6,24.6
2023/08/20 21:00:00,58.0,24.5
2023/08/20 21:10:00,51.7,24.4
2023/08/20 21:20:00,33.8,24.3
2023/08/20 21:30:00,33.8,24.3
2023/08/20 21:40:00,33.8,24.2
2023/08/20 21:50:00,33.4,24.3
2023/08/20 22:00:00,33.7,24.3
2023/08/20 22:10:00,33.7,24.3
2023/08/20 22:20:00,33.9,24.0
2023/08/20 22:30:00,33.7,24.0
2023/08/20 22:40:00,34.0,24.7
2023/08/20 22:50:00,34.3,24.0
2023/08/20 23:00:00,34.0,24.0
2023/08/20 23:10:00,34.2,24.0
2023/08/20 23:20:00,33.8,24.1
2023/08/20 23:30:00,33.6,24.0
2023/08/20 23:40:00,34.3,24.0
2023/08/20 23:50:00,34.6,23.8
